Le nostre stazioni meteo in Italia

Pubblicità
Il mio iltempo24.it
Reggio Calabria, Italia (16422): Temperatura & dewpoint: 09.10.2019 12:00:00 - 15.10.2019 12:00:00 (CEST)Reggio Calabria, Italia (16422): velocità del vento: 09.10.2019 12:00:00 - 15.10.2019 12:00:00 (CEST)Reggio Calabria, Italia (16422): direzione del vento: 09.10.2019 12:00:00 - 15.10.2019 12:00:00 (CEST)Reggio Calabria, Italia (16422): visibility: 09.10.2019 12:00:00 - 15.10.2019 12:00:00 (CEST)
Data & Tempo tt [°C] td [°C] ff [km/h] ff [kn] dd vv [km]
15.10.2019 12:00:00 - - - - - -
15.10.2019 11:00:00 25,0 19,0 18 10 SSO 10
15.10.2019 10:00:00 25,0 19,0 13 7 S 10
15.10.2019 09:00:00 23,0 18,0 8 4 S 10
15.10.2019 08:00:00 19,0 16,0 2 1 - 10
15.10.2019 07:00:00 19,0 16,0 5 3 E 10
15.10.2019 06:00:00 19,0 16,0 9 5 E 10
15.10.2019 05:00:00 - - - - - -
15.10.2019 04:00:00 - - - - - -
15.10.2019 03:00:00 - - - - - -
15.10.2019 02:00:00 - - - - - -
15.10.2019 01:00:00 - - - - - -
15.10.2019 00:00:00 21,0 16,0 11 6 ESE 10
14.10.2019 23:00:00 21,0 17,0 11 6 ESE 10
14.10.2019 22:00:00 21,0 17,0 9 5 ESE 10
14.10.2019 21:00:00 22,0 17,0 9 5 ESE 10
14.10.2019 20:00:00 22,0 18,0 8 4 SSE 10
14.10.2019 19:00:00 23,0 18,0 16 9 S 10
14.10.2019 18:00:00 23,0 18,0 16 9 SSO 10
14.10.2019 17:00:00 25,0 20,0 18 10 SSO 10
14.10.2019 16:00:00 25,0 20,0 18 10 S 10
14.10.2019 15:00:00 25,0 19,0 24 13 SSO 10
14.10.2019 14:00:00 26,0 19,0 22 12 SSO 10
14.10.2019 13:00:00 26,0 20,0 22 12 SSO 10
14.10.2019 12:00:00 25,0 19,0 15 8 SO 10
14.10.2019 11:00:00 25,0 18,0 8 4 SSO 10
14.10.2019 10:00:00 25,0 15,0 4 2 SSO 10
14.10.2019 09:00:00 23,0 14,0 2 1 - 10
14.10.2019 08:00:00 18,0 14,0 9 5 NE 10
14.10.2019 07:00:00 17,0 13,0 9 5 NE 10
14.10.2019 06:00:00 18,0 13,0 8 4 NE 10
14.10.2019 05:00:00 - - - - - -
14.10.2019 04:00:00 - - - - - -
14.10.2019 03:00:00 - - - - - -
14.10.2019 02:00:00 - - - - - -
14.10.2019 01:00:00 - - - - - -
14.10.2019 00:00:00 20,0 14,0 4 2 - 10
13.10.2019 23:00:00 19,0 16,0 9 5 NE 10
13.10.2019 22:00:00 21,0 17,0 5 3 E 10
13.10.2019 21:00:00 21,0 16,0 5 3 E 10
13.10.2019 20:00:00 21,0 17,0 5 3 ENE 10
13.10.2019 19:00:00 23,0 17,0 15 8 N 10
13.10.2019 18:00:00 23,0 18,0 21 11 NNO 10
13.10.2019 17:00:00 24,0 18,0 18 10 NNO 10
13.10.2019 16:00:00 26,0 18,0 13 7 N 10
13.10.2019 15:00:00 25,0 20,0 9 5 ONO 10
13.10.2019 14:00:00 26,0 20,0 13 7 SO 10
13.10.2019 13:00:00 25,0 19,0 13 7 OSO 10
13.10.2019 12:00:00 26,0 18,0 9 5 SO 10
13.10.2019 11:00:00 26,0 18,0 9 5 N 10
13.10.2019 10:00:00 24,0 18,0 13 7 N 10
13.10.2019 09:00:00 22,0 15,0 11 6 N 10
13.10.2019 08:00:00 19,0 14,0 8 4 N 10
13.10.2019 07:00:00 18,0 14,0 8 4 NNE 10
13.10.2019 06:00:00 18,0 14,0 8 4 NNE 10
13.10.2019 05:00:00 - - - - - -
13.10.2019 04:00:00 - - - - - -
13.10.2019 03:00:00 - - - - - -
13.10.2019 02:00:00 - - - - - -
13.10.2019 01:00:00 - - - - - -
13.10.2019 00:00:00 19,0 16,0 8 4 ENE 10
12.10.2019 23:00:00 20,0 17,0 9 5 E 10
12.10.2019 22:00:00 20,0 18,0 2 1 - 10
12.10.2019 21:00:00 21,0 19,0 5 3 ENE 10
12.10.2019 20:00:00 22,0 20,0 8 4 S 10
12.10.2019 19:00:00 23,0 20,0 9 5 SSO 10
12.10.2019 18:00:00 24,0 20,0 11 6 SSO 10
12.10.2019 17:00:00 25,0 19,0 11 6 SSO 10
12.10.2019 16:00:00 25,0 19,0 15 8 SSO 10
12.10.2019 15:00:00 25,0 19,0 15 8 SSO 10
12.10.2019 14:00:00 26,0 19,0 16 9 SSO 10
12.10.2019 13:00:00 26,0 18,0 15 8 SSO 10
12.10.2019 12:00:00 25,0 18,0 9 5 SSO 10
12.10.2019 11:00:00 24,0 17,0 8 4 SO 10
12.10.2019 10:00:00 24,0 16,0 5 3 O 10
12.10.2019 09:00:00 22,0 15,0 2 1 S 10
12.10.2019 08:00:00 18,0 15,0 8 4 ENE 10
12.10.2019 07:00:00 17,0 14,0 9 5 NE 10
12.10.2019 06:00:00 17,0 13,0 8 4 NNE 10
12.10.2019 05:00:00 - - - - - -
12.10.2019 04:00:00 - - - - - -
12.10.2019 03:00:00 - - - - - -
12.10.2019 02:00:00 - - - - - -
12.10.2019 01:00:00 - - - - - -
12.10.2019 00:00:00 19,0 14,0 4 2 E 10
11.10.2019 23:00:00 19,0 13,0 0 0 N 10
11.10.2019 22:00:00 19,0 13,0 8 4 NE 10
11.10.2019 21:00:00 20,0 13,0 9 5 NE 10
11.10.2019 20:00:00 22,0 12,0 8 4 NNE 10
11.10.2019 19:00:00 23,0 15,0 16 9 N 10
11.10.2019 18:00:00 24,0 15,0 21 11 N 10
11.10.2019 17:00:00 25,0 16,0 22 12 N 10
11.10.2019 16:00:00 26,0 16,0 24 13 N 10
11.10.2019 15:00:00 26,0 17,0 24 13 N 10
11.10.2019 14:00:00 27,0 16,0 28 15 N 10
11.10.2019 13:00:00 27,0 16,0 24 13 N 10
11.10.2019 12:00:00 27,0 15,0 26 14 N 10
11.10.2019 11:00:00 25,0 19,0 22 12 NNO 10
11.10.2019 10:00:00 25,0 18,0 24 13 N 10
11.10.2019 09:00:00 23,0 17,0 18 10 N 10
11.10.2019 08:00:00 22,0 17,0 18 10 N 10
11.10.2019 07:00:00 21,0 17,0 16 9 N 10
11.10.2019 06:00:00 21,0 17,0 13 7 N 10
11.10.2019 05:00:00 - - - - - -
11.10.2019 04:00:00 - - - - - -
11.10.2019 03:00:00 - - - - - -
11.10.2019 02:00:00 - - - - - -
11.10.2019 01:00:00 - - - - - -
11.10.2019 00:00:00 21,0 17,0 13 7 NE 10
10.10.2019 23:00:00 21,0 17,0 11 6 NE 10
10.10.2019 22:00:00 21,0 17,0 2 1 - 10
10.10.2019 21:00:00 21,0 17,0 8 4 NNE 10
10.10.2019 20:00:00 23,0 18,0 9 5 N 10
10.10.2019 19:00:00 24,0 18,0 13 7 N 10
10.10.2019 18:00:00 23,0 19,0 11 6 ONO 10
10.10.2019 17:00:00 24,0 18,0 11 6 O 10
10.10.2019 16:00:00 25,0 18,0 13 7 SO 10
10.10.2019 15:00:00 25,0 19,0 16 9 SSO 10
10.10.2019 14:00:00 26,0 19,0 13 7 SSO 10
10.10.2019 13:00:00 27,0 17,0 15 8 ONO 10
10.10.2019 12:00:00 25,0 17,0 5 3 SSO 10
10.10.2019 11:00:00 24,0 17,0 13 7 N 10
10.10.2019 10:00:00 23,0 18,0 9 5 ESE 10
10.10.2019 09:00:00 21,0 17,0 5 3 NE 10
10.10.2019 08:00:00 20,0 17,0 5 3 E 10
10.10.2019 07:00:00 20,0 16,0 5 3 NE 10
10.10.2019 06:00:00 19,0 16,0 5 3 NNE 10
10.10.2019 05:00:00 - - - - - -
10.10.2019 04:00:00 - - - - - -
10.10.2019 03:00:00 - - - - - -
10.10.2019 02:00:00 - - - - - -
10.10.2019 01:00:00 - - - - - -
10.10.2019 00:00:00 22,0 17,0 9 5 NO 10
09.10.2019 23:00:00 23,0 16,0 13 7 N 10
09.10.2019 22:00:00 23,0 15,0 8 4 - 10
09.10.2019 21:00:00 25,0 17,0 15 8 S 10
09.10.2019 20:00:00 23,0 19,0 8 4 S 10
09.10.2019 19:00:00 25,0 19,0 2 1 NNE 10
09.10.2019 18:00:00 26,0 19,0 9 5 NNE 10
09.10.2019 17:00:00 26,0 17,0 13 7 N 10
09.10.2019 16:00:00 27,0 17,0 13 7 NNO 10
09.10.2019 15:00:00 26,0 19,0 16 9 NNO 10
09.10.2019 14:00:00 26,0 19,0 15 8 NNO 10
09.10.2019 13:00:00 25,0 18,0 11 6 NO 10
09.10.2019 12:00:00 24,0 17,0 9 5 SO 10

tt = Temperatura
td = dewpoint
ff = velocità del vento
dd = direzione del vento
vv = visibility

Stazioni seguenti

WeatherPro
AMSI
MeteoEarth